[[{"header":{"parameterUnit":"m.s-1","parameterCategory":1,"la1":30.2991,"la2":30.254,"lo1":-89.0895,"lo2":-89.0444,"dy":0.0017,"dx":0.0017,"nx":28,"ny":28,"refTime":"2025-07-09T21:00:00:Z","depth":0,"parameterNumber":2,"parameterNumberName":"U-component_of_WINDS"},"data":[0,0,0,0,0,0,0,0,0,0,0,0,0,0,0,0,0,0,0,0,0,0,0,0,0,0,0,0,0,0,0,0,0,0,0,0,0,0,0,0,0,0,0,0,0,0,0,0,0,0,0,0,0,0,0,0,0,0,4.6369,4.6372,0,4.6621,4.6624,4.6627,4.6611,4.6607,4.6603,4.66,4.6864,4.6874,4.6884,0,0,0,0,0,0,0,0,0,0,0,0,0,4.5875,4.5884,4.6369,4.6372,4.6375,4.6621,4.6624,4.6628,4.6611,4.6607,4.6602,4.6598,4.686,4.6873,4.6885,0,0,0,0,0,0,0,0,0,0,0,0,0,4.6105,4.5887,4.6368,4.6396,4.6401,4.662,4.6625,4.6629,4.6612,4.6607,4.6601,4.6596,4.6856,4.6871,4.6887,4.7096,0,0,4.6935,4.6942,0,0,0,0,0,0,0,0,4.6092,4.6123,4.6389,4.6395,4.6401,4.6579,4.6547,4.6786,4.6614,4.6532,4.66,4.6593,4.6774,4.6796,4.6856,4.7108,4.712,4.6936,4.6946,4.6953,4.6957,0,0,0,0,0,0,0,4.6076,4.6112,4.6469,4.6393,4.64,4.6397,4.6424,4.6592,4.6682,4.6539,4.6538,4.6568,4.6776,4.6841,4.6862,4.7124,4.6936,4.695,4.696,4.6966,4.7559,4.7565,0,0,0,0,0,0,4.6053,4.6099,4.6461,4.6476,4.6229,4.6411,4.644,4.6527,4.668,4.6697,4.6573,4.6566,4.6816,4.6843,4.6871,4.7124,4.6953,4.6967,4.6976,4.7552,4.756,4.7567,0,0,0,0,0,0,4.6043,4.6086,4.6451,4.6288,4.6334,4.6425,4.6523,4.6535,4.66,4.6705,4.6721,4.6622,4.6813,4.6849,4.7039,4.7133,4.6974,4.6989,4.7545,4.7555,4.7564,4.7634,0,0,0,0,0,0,4.6029,4.6082,4.6162,4.6289,4.6343,4.6614,4.6529,4.6544,4.6626,4.6621,4.6756,4.6773,4.6811,4.7016,4.7055,4.7152,4.7001,4.7537,4.7549,4.7561,4.7623,4.7644,4.7662,0,0,0,0,0,4.6011,4.6173,4.6166,4.621,4.6444,4.6619,4.665,4.669,4.6634,4.6715,4.6782,4.6768,4.7117,4.7036,4.708,4.7183,4.7531,4.7546,4.756,4.7615,4.764,4.7662,0,0,0,0,0,0,4.6056,4.619,4.6184,4.6392,4.6494,4.6616,4.672,4.6716,4.6837,4.6827,4.6873,4.6903,4.7094,4.7158,4.7065,4.7392,4.7317,4.7341,4.7344,4.7369,4.7388,4.7369,4.7014,0,0,0,0,0,4.609,4.622,4.6331,4.6504,4.6555,4.6629,4.6707,4.6728,4.6837,4.688,4.6962,4.7069,4.7202,4.7289,4.7418,4.7632,4.7661,4.7725,4.7744,4.776,4.778,4.7896,4.7926,4.7613,4.7613,4.7613,0,0,4.6162,4.6251,4.6331,4.6515,4.6596,4.6731,4.6665,4.6811,4.6911,4.6903,4.7087,4.715,4.7273,4.7476,4.7569,4.7535,4.7872,4.7778,4.7789,4.7801,4.7914,4.7943,4.797,4.7623,4.7621,4.762,0,0,4.6361,4.6442,4.6594,4.6676,4.68,4.6848,4.6884,4.7007,4.7048,4.7233,4.7229,4.735,4.7579,4.7665,4.774,4.7969,4.7961,4.801,4.8112,4.8225,4.825,4.8272,4.8352,4.8381,4.803,4.803,4.803,0,4.6435,4.6636,4.6673,4.6819,4.6899,4.6896,4.705,4.7129,4.7289,4.7345,4.7304,4.759,4.7672,4.7894,4.795,4.8011,4.8054,4.7995,4.8243,4.8265,4.8286,4.8364,4.8394,4.8035,4.8035,4.8034,4.8034,0,4.6721,4.686,4.6968,4.712,4.7213,4.7362,4.7422,4.7512,4.7525,4.7577,4.7765,4.7863,4.8011,4.8065,4.8081,4.829,4.8264,4.8232,4.8158,4.8321,4.8394,4.8424,4.8042,4.8041,4.8039,4.8038,0,0,4.6957,4.7125,4.7164,4.7232,4.7367,4.7476,4.7625,4.7767,4.7843,4.7954,4.8079,4.8272,4.8243,4.8327,4.8352,4.8451,4.8625,4.8407,4.8411,4.8443,4.886,4.8882,4.8916,4.862,4.8626,4.863,4.8849,0,4.7169,4.743,4.7467,4.7699,4.7828,4.7825,4.7955,4.8052,4.8105,4.8222,4.8281,4.8416,4.8368,4.8418,4.8517,4.8583,4.8709,4.8568,4.8738,4.8743,4.8706,4.8955,4.8979,4.9181,4.8878,4.8883,4.8887,0,4.7451,4.7566,4.781,4.7926,4.7981,4.8097,4.8229,4.8341,4.8452,4.8483,4.8575,4.8587,4.8742,4.866,4.8874,4.8777,4.8849,4.8892,4.8901,4.8917,4.8824,4.8977,4.9246,4.9276,4.8933,4.8929,4.8926,0,4.7597,4.7813,4.7987,4.8045,4.8185,4.8266,4.8328,4.8433,4.8515,4.8631,4.8685,4.8819,4.8892,4.8995,4.9043,4.8979,4.9253,4.9176,4.9283,4.9282,4.9341,4.9336,4.9624,4.9389,4.9388,4.9388,4.9387,0,4.783,4.7979,4.8053,4.816,4.8327,4.8368,4.8532,4.8592,4.8685,4.8803,4.8811,4.8922,4.8979,4.9099,4.9138,4.9307,4.9341,4.9371,4.9379,4.937,4.9366,4.9417,4.9403,4.9396,4.9394,4.9392,4.9391,0,4.8021,4.8077,4.8265,4.8381,4.8413,4.8531,4.8631,4.8734,4.8785,4.8935,4.8972,4.9053,4.9194,4.9252,4.9427,4.9452,4.9647,4.9646,4.9609,4.9612,4.9715,4.9704,5.0045,5.0091,4.9826,4.9829,4.9831,0,4.8165,4.8279,4.8406,4.8484,4.8548,4.8676,4.8759,4.8804,4.889,4.9023,4.9111,4.9251,4.9366,4.9593,4.9667,4.98,4.9801,4.9911,4.9821,4.9807,4.9801,4.9793,4.9804,4.9928,4.993,4.9933,4.9934,0,4.8414,4.8436,4.8554,4.8683,4.8781,4.8885,4.8987,4.9051,4.9111,4.9208,4.9351,4.944,4.9617,4.9756,4.9893,4.9958,4.9957,4.9962,4.9994,4.9985,4.9958,4.9972,4.9653,4.9954,4.9952,4.9951,4.995,4.9949,4.8586,4.8686,4.879,4.8922,4.9002,4.9096,4.9198,4.926,4.938,4.9525,4.9545,4.9698,4.9804,4.9987,5.0058,5.0179,5.0151,5.0197,5.0208,5.0219,5.0224,4.9939,5.0204,5.0204,5.0203,5.0203,5.0203,0,4.8834,4.89,4.9021,4.9161,4.9264,4.9251,4.9362,4.945,4.9584,4.9682,4.9794,4.9958,5.0093,5.0177,5.0313,5.0394,5.0396,5.0428,5.0422,5.0436,5.0243,5.0201,5.0423,5.0423,5.0423,5.0423,5.0423,5.0423,4.8976,4.9144,4.9178,4.9386,4.9451,4.96,4.9664,4.975,4.9828,5.001,5.0121,5.0174,5.0267,5.0409,5.0532,5.0554,5.0603,5.0636,5.0656,5.0473,5.045,5.0428,5.0389,5.0647,5.0647,5.0839,5.084,5.0842]},{"header":{"parameterUnit":"m.s-1","parameterCategory":1,"la1":30.2991,"la2":30.254,"lo1":-89.0895,"lo2":-89.0444,"dy":0.0017,"dx":0.0017,"nx":28,"ny":28,"refTime":"2025-07-09T21:00:00:Z","depth":0,"parameterNumber":3,"parameterNumberName":"V-component_of_WINDS"},"data":[0,0,0,0,0,0,0,0,0,0,0,0,0,0,0,0,0,0,0,0,0,0,0,0,0,0,0,0,0,0,0,0,0,0,0,0,0,0,0,0,0,0,0,0,0,0,0,0,0,0,0,0,0,0,0,0,0,0,-0.2172,-0.2173,0,-0.2217,-0.2217,-0.2218,-0.224,-0.224,-0.224,-0.224,-0.2285,-0.2287,-0.2288,0,0,0,0,0,0,0,0,0,0,0,0,0,-0.2106,-0.2107,-0.2172,-0.2173,-0.2173,-0.2217,-0.2217,-0.2218,-0.224,-0.224,-0.224,-0.2241,-0.2285,-0.2286,-0.2288,0,0,0,0,0,0,0,0,0,0,0,0,0,-0.2141,-0.2107,-0.2172,-0.219,-0.2192,-0.2217,-0.2217,-0.2218,-0.224,-0.224,-0.224,-0.2241,-0.2285,-0.2286,-0.2288,-0.2298,0,0,-0.2293,-0.2294,0,0,0,0,0,0,0,0,-0.2139,-0.2143,-0.2187,-0.2188,-0.2191,-0.2223,-0.221,-0.2245,-0.224,-0.2222,-0.224,-0.2241,-0.2265,-0.2268,-0.2276,-0.2301,-0.2303,-0.2294,-0.2295,-0.2295,-0.2296,0,0,0,0,0,0,0,-0.2136,-0.2141,-0.219,-0.2187,-0.219,-0.2195,-0.22,-0.2217,-0.2243,-0.2224,-0.2225,-0.223,-0.2266,-0.2275,-0.2278,-0.2303,-0.2294,-0.2295,-0.2296,-0.2297,-0.2339,-0.2339,0,0,0,0,0,0,-0.2131,-0.2139,-0.2188,-0.2191,-0.2164,-0.2196,-0.2202,-0.2213,-0.2242,-0.2247,-0.223,-0.2231,-0.2272,-0.2275,-0.2279,-0.2294,-0.2295,-0.2297,-0.2298,-0.2339,-0.2339,-0.2339,0,0,0,0,0,0,-0.213,-0.2135,-0.2187,-0.2166,-0.2173,-0.2198,-0.2209,-0.2214,-0.2222,-0.2248,-0.2252,-0.2235,-0.2272,-0.2277,-0.2294,-0.2296,-0.2298,-0.2299,-0.2339,-0.2339,-0.2339,-0.2323,0,0,0,0,0,0,-0.2128,-0.2135,-0.2139,-0.2166,-0.2174,-0.22,-0.2209,-0.2214,-0.2226,-0.2227,-0.2253,-0.2257,-0.2272,-0.2291,-0.2295,-0.2298,-0.2301,-0.2339,-0.2339,-0.2339,-0.2323,-0.2322,-0.2321,0,0,0,0,0,-0.2125,-0.2132,-0.2139,-0.2145,-0.218,-0.22,-0.2205,-0.2222,-0.2226,-0.223,-0.2246,-0.2256,-0.2295,-0.2292,-0.2298,-0.2301,-0.2338,-0.2339,-0.2339,-0.2323,-0.2322,-0.2321,0,0,0,0,0,0,-0.2105,-0.2136,-0.2144,-0.216,-0.2177,-0.2204,-0.221,-0.2221,-0.2237,-0.2238,-0.2259,-0.2264,-0.2279,-0.2292,-0.2289,-0.2313,-0.2318,-0.2319,-0.2304,-0.2303,-0.2302,-0.2299,-0.2302,0,0,0,0,0,-0.2102,-0.2117,-0.2143,-0.2155,-0.2163,-0.2185,-0.2195,-0.2207,-0.2226,-0.2233,-0.2251,-0.2268,-0.2284,-0.2294,-0.2311,-0.2325,-0.2331,-0.233,-0.2329,-0.2328,-0.2329,-0.2338,-0.2338,-0.2339,-0.2339,-0.2339,0,0,-0.2097,-0.2116,-0.2124,-0.2151,-0.2166,-0.2181,-0.2191,-0.2206,-0.2217,-0.2235,-0.2253,-0.2266,-0.2287,-0.2303,-0.2311,-0.2314,-0.233,-0.2328,-0.2327,-0.2329,-0.2338,-0.2338,-0.2337,-0.2339,-0.2339,-0.2339,0,0,-0.2095,-0.2111,-0.2122,-0.2137,-0.216,-0.2174,-0.2177,-0.2203,-0.2212,-0.223,-0.2244,-0.2257,-0.2284,-0.2299,-0.231,-0.2314,-0.2324,-0.2318,-0.2314,-0.2322,-0.2322,-0.2322,-0.2324,-0.2324,-0.2319,-0.2319,-0.2319,0,-0.2086,-0.2108,-0.2127,-0.2141,-0.2153,-0.217,-0.2182,-0.2196,-0.2222,-0.223,-0.2233,-0.2268,-0.2283,-0.2303,-0.2304,-0.2312,-0.2316,-0.2316,-0.2321,-0.2321,-0.2321,-0.2323,-0.2323,-0.2318,-0.2318,-0.2318,-0.2319,0,-0.2096,-0.2111,-0.2118,-0.2143,-0.2156,-0.2169,-0.2189,-0.22,-0.2211,-0.2225,-0.2243,-0.2262,-0.2282,-0.2288,-0.2298,-0.2309,-0.231,-0.2317,-0.2322,-0.232,-0.2322,-0.2323,-0.2317,-0.2317,-0.2318,-0.2318,0,0,-0.2082,-0.2118,-0.212,-0.2132,-0.2159,-0.2171,-0.2184,-0.2205,-0.2214,-0.2231,-0.2243,-0.2266,-0.2272,-0.2285,-0.2297,-0.2304,-0.2307,-0.231,-0.2311,-0.2309,-0.232,-0.2315,-0.2315,-0.2313,-0.2313,-0.2314,-0.2318,0,-0.2084,-0.211,-0.2127,-0.2146,-0.216,-0.2177,-0.2189,-0.2207,-0.2221,-0.2235,-0.225,-0.2266,-0.2273,-0.228,-0.2288,-0.2305,-0.2309,-0.2304,-0.2325,-0.2325,-0.2319,-0.2317,-0.2311,-0.2315,-0.2319,-0.2319,-0.2319,0,-0.209,-0.2107,-0.2128,-0.2153,-0.2159,-0.217,-0.219,-0.2204,-0.2224,-0.2233,-0.2247,-0.226,-0.2275,-0.2279,-0.23,-0.2297,-0.2306,-0.2315,-0.2316,-0.2318,-0.2322,-0.2319,-0.2316,-0.2317,-0.2321,-0.2321,-0.232,0,-0.2078,-0.2107,-0.2123,-0.2132,-0.2162,-0.2169,-0.2182,-0.2202,-0.2213,-0.2231,-0.2238,-0.2257,-0.2268,-0.2282,-0.23,-0.2301,-0.2319,-0.2324,-0.2327,-0.2327,-0.2331,-0.233,-0.2329,-0.2336,-0.2336,-0.2336,-0.2336,0,-0.2078,-0.209,-0.2118,-0.2128,-0.2142,-0.2161,-0.2174,-0.2188,-0.2206,-0.2219,-0.2235,-0.2246,-0.2269,-0.2283,-0.2297,-0.2313,-0.2317,-0.2325,-0.2329,-0.2324,-0.2323,-0.2331,-0.2331,-0.2336,-0.2336,-0.2336,-0.2336,0,-0.2068,-0.2087,-0.2106,-0.2132,-0.2139,-0.2148,-0.2171,-0.2181,-0.2196,-0.2212,-0.2217,-0.2239,-0.2257,-0.2276,-0.23,-0.231,-0.2325,-0.233,-0.2318,-0.232,-0.2322,-0.2322,-0.2326,-0.2328,-0.2333,-0.2333,-0.2333,0,-0.2067,-0.2077,-0.2104,-0.2114,-0.2126,-0.2142,-0.2154,-0.2173,-0.2185,-0.2209,-0.2216,-0.2235,-0.2251,-0.2279,-0.2298,-0.2316,-0.2322,-0.2322,-0.2325,-0.232,-0.2322,-0.2322,-0.2323,-0.2321,-0.2321,-0.2321,-0.2321,0,-0.2063,-0.2072,-0.2089,-0.2108,-0.2122,-0.2138,-0.2155,-0.2163,-0.2186,-0.2198,-0.2216,-0.2229,-0.2254,-0.2273,-0.2294,-0.2307,-0.2318,-0.232,-0.2322,-0.2317,-0.231,-0.2314,-0.2316,-0.232,-0.232,-0.232,-0.232,-0.232,-0.2058,-0.2067,-0.2088,-0.2106,-0.2121,-0.2136,-0.2148,-0.2164,-0.218,-0.2202,-0.2212,-0.2231,-0.2251,-0.228,-0.2293,-0.2308,-0.2311,-0.2314,-0.2314,-0.2315,-0.2314,-0.2308,-0.2312,-0.2312,-0.2312,-0.2312,-0.2312,0,-0.2055,-0.207,-0.2086,-0.2109,-0.2123,-0.2133,-0.2152,-0.2163,-0.2179,-0.2197,-0.2213,-0.2235,-0.2253,-0.2273,-0.2293,-0.2301,-0.2307,-0.2306,-0.2305,-0.2308,-0.2309,-0.2306,-0.2301,-0.2301,-0.2301,-0.2301,-0.2301,-0.2301,-0.2056,-0.2072,-0.2084,-0.2108,-0.2122,-0.2141,-0.2151,-0.2166,-0.218,-0.2203,-0.2219,-0.2232,-0.2251,-0.2272,-0.229,-0.2295,-0.2302,-0.2299,-0.2306,-0.2307,-0.2308,-0.2309,-0.2306,-0.23,-0.23,-0.2304,-0.2304,-0.2304]}]]